| time (UTC) | temp F | wind direction | speed MPH | gust MPH | rain 1hr in | rain 24hr in | rain mn in | humidity % | barometer mb |
| 20260506232906 | 67 | 196 | 1.0 | 4.0 | 0.00 | 0.08 | 0.04 | 86 | 1026.0 |
| 20260506232402 | 66 | 170 | 1.0 | 5.0 | 0.00 | 0.09 | 0.04 | 86 | 1025.8 |
| 20260506231859 | 66 | 112 | 1.0 | 5.0 | 0.00 | 0.09 | 0.04 | 87 | 1026.0 |
| 20260506231357 | 66 | 200 | 2.0 | 10.0 | 0.00 | 0.09 | 0.04 | 88 | 1026.1 |
| 20260506230853 | 66 | 201 | 2.0 | 10.0 | 0.00 | 0.10 | 0.04 | 88 | 1026.2 |
| 20260506230356 | 66 | 163 | 1.0 | 4.0 | 0.00 | 0.11 | 0.04 | 89 | 1026.2 |
| 20260506225855 | 65 | 177 | 1.0 | 6.0 | 0.00 | 0.13 | 0.04 | 90 | 1026.3 |
| 20260506225353 | 65 | 187 | 1.0 | 6.0 | 0.00 | 0.13 | 0.04 | 90 | 1026.3 |
| 20260506224858 | 65 | 105 | 1.0 | 5.0 | 0.00 | 0.13 | 0.04 | 90 | 1026.4 |
| 20260506224358 | 65 | 127 | 0.0 | 1.0 | 0.00 | 0.13 | 0.04 | 93 | 1026.4 |
| 20260506223855 | 65 | 193 | 1.0 | 5.0 | 0.00 | 0.13 | 0.04 | 93 | 1026.5 |
| 20260506223729 | 65 | 193 | 1.0 | 5.0 | 0.00 | 0.13 | 0.04 | 94 | 1026.5 |
| 20260506222851 | 64 | 152 | 1.0 | 6.0 | 0.00 | 0.13 | 0.04 | 95 | 1026.5 |
| 20260506222349 | 64 | 175 | 1.0 | 6.0 | 0.00 | 0.13 | 0.04 | 95 | 1026.5 |
| 20260506222252 | 64 | 111 | 1.0 | 4.0 | 0.00 | 0.13 | 0.04 | 96 | 1026.5 |
| 20260506221347 | 64 | 274 | 1.0 | 5.0 | 0.00 | 0.13 | 0.04 | 96 | 1026.5 |
| 20260506220847 | 64 | 177 | 2.0 | 5.0 | 0.00 | 0.13 | 0.04 | 97 | 1026.7 |
| 20260506220345 | 64 | 159 | 2.0 | 6.0 | 0.00 | 0.13 | 0.04 | 99 | 1026.6 |
| 20260506215845 | 64 | 165 | 2.0 | 6.0 | 0.00 | 0.13 | 0.04 | 100 | 1026.7 |
| 20260506215352 | 64 | 198 | 2.0 | 5.0 | 0.00 | 0.13 | 0.04 | 100 | 1026.7 |
| 20260506214847 | 63 | 28 | 2.0 | 6.0 | 0.00 | 0.13 | 0.04 | 100 | 1026.9 |
| 20260506214339 | 62 | 164 | 1.0 | 6.0 | 0.00 | 0.13 | 0.04 | 100 | 1026.9 |
| 20260506214259 | 61 | 131 | 1.0 | 4.0 | 0.00 | 0.13 | 0.04 | 100 | 1026.7 |
| 20260506213328 | 61 | 173 | 0.0 | 3.0 | 0.00 | 0.13 | 0.04 | 100 | 1026.9 |
| 20260506212822 | 61 | 154 | 0.0 | 2.0 | 0.00 | 0.13 | 0.04 | 100 | 1026.9 |
| 20260506212317 | 61 | 190 | 0.0 | 0.0 | 0.00 | 0.13 | 0.04 | 100 | 1027.0 |
| 20260506212154 | 61 | 190 | 0.0 | 0.0 | 0.00 | 0.13 | 0.04 | 100 | 1027.0 |
| 20260506211303 | 61 | 190 | 0.0 | 0.0 | 0.00 | 0.13 | 0.04 | 100 | 1027.0 |
| 20260506210758 | 60 | 190 | 0.0 | 0.0 | 0.00 | 0.13 | 0.04 | 100 | 1027.0 |
| 20260506210251 | 60 | 189 | 0.0 | 0.0 | 0.00 | 0.13 | 0.04 | 100 | 1027.1 |
| 20260506205748 | 60 | 189 | 0.0 | 0.0 | 0.00 | 0.13 | 0.04 | 100 | 1027.1 |
| 20260506205625 | 60 | 189 | 0.0 | 0.0 | 0.00 | 0.13 | 0.04 | 100 | 1027.1 |
| 20260506204733 | 59 | 189 | 0.0 | 0.0 | 0.00 | 0.13 | 0.04 | 100 | 1027.1 |
| 20260506204228 | 59 | 189 | 0.0 | 0.0 | 0.00 | 0.13 | 0.04 | 100 | 1027.0 |
| 20260506203721 | 59 | 189 | 0.0 | 0.0 | 0.01 | 0.13 | 0.04 | 100 | 1027.0 |
| 20260506203216 | 59 | 189 | 0.0 | 0.0 | 0.01 | 0.13 | 0.04 | 100 | 1027.0 |
| 20260506202709 | 59 | 189 | 0.0 | 0.0 | 0.01 | 0.13 | 0.04 | 100 | 1027.0 |
| 20260506202203 | 58 | 189 | 0.0 | 0.0 | 0.01 | 0.13 | 0.04 | 100 | 1027.1 |
| 20260506202042 | 58 | 189 | 0.0 | 0.0 | 0.02 | 0.13 | 0.04 | 100 | 1027.1 |
| 20260506201151 | 58 | 189 | 0.0 | 0.0 | 0.02 | 0.13 | 0.04 | 100 | 1027.0 |
| 20260506200647 | 58 | 189 | 0.0 | 0.0 | 0.02 | 0.13 | 0.04 | 100 | 1027.0 |
| 20260506200139 | 58 | 189 | 0.0 | 0.0 | 0.02 | 0.13 | 0.04 | 100 | 1027.0 |
| 20260506195633 | 58 | 189 | 0.0 | 0.0 | 0.02 | 0.13 | 0.04 | 100 | 1027.0 |
| 20260506195127 | 57 | 189 | 0.0 | 0.0 | 0.02 | 0.13 | 0.04 | 100 | 1027.0 |
| 20260506194621 | 57 | 189 | 0.0 | 0.0 | 0.02 | 0.13 | 0.04 | 100 | 1026.9 |
| 20260506194522 | 57 | 189 | 0.0 | 0.0 | 0.02 | 0.13 | 0.04 | 100 | 1026.9 |
| 20260506193614 | 57 | 189 | 0.0 | 0.0 | 0.02 | 0.13 | 0.03 | 100 | 1027.0 |
| 20260506193104 | 57 | 189 | 0.0 | 0.0 | 0.02 | 0.13 | 0.03 | 100 | 1026.9 |
| 20260506192942 | 57 | 189 | 0.0 | 0.0 | 0.02 | 0.13 | 0.03 | 100 | 1027.0 |
| 20260506192440 | 57 | 189 | 0.0 | 0.0 | 0.02 | 0.13 | 0.03 | 100 | 1026.9 |
| 20260506191607 | 57 | 189 | 0.0 | 0.0 | 0.02 | 0.12 | 0.02 | 100 | 1026.9 |
| 20260506191102 | 57 | 189 | 0.0 | 0.0 | 0.02 | 0.12 | 0.02 | 100 | 1026.8 |
| 20260506190603 | 57 | 189 | 0.0 | 0.0 | 0.01 | 0.11 | 0.02 | 100 | 1026.9 |
| 20260506190057 | 57 | 189 | 0.0 | 0.0 | 0.01 | 0.11 | 0.02 | 100 | 1026.9 |
| 20260506185559 | 57 | 189 | 0.0 | 0.0 | 0.01 | 0.11 | 0.02 | 100 | 1026.9 |
| 20260506185056 | 56 | 189 | 0.0 | 0.0 | 0.01 | 0.11 | 0.02 | 100 | 1026.8 |
| 20260506184555 | 56 | 189 | 0.0 | 0.0 | 0.01 | 0.11 | 0.02 | 100 | 1026.8 |
| 20260506184053 | 56 | 189 | 0.0 | 0.0 | 0.01 | 0.11 | 0.02 | 100 | 1026.6 |
| 20260506183740 | 56 | 189 | 0.0 | 0.0 | 0.01 | 0.12 | 0.02 | 100 | 1026.7 |
| 20260506182556 | 56 | 189 | 0.0 | 0.0 | 0.00 | 0.11 | 0.01 | 100 | 1026.7 |
| 20260506182055 | 56 | 189 | 0.0 | 0.0 | 0.00 | 0.12 | 0.01 | 100 | 1026.7 |
| 20260506181553 | 56 | 189 | 0.0 | 0.0 | 0.00 | 0.12 | 0.01 | 100 | 1026.7 |
| 20260506181051 | 56 | 189 | 0.0 | 0.0 | 0.00 | 0.12 | 0.01 | 100 | 1026.8 |
| 20260506180600 | 56 | 189 | 0.0 | 0.0 | 0.00 | 0.12 | 0.01 | 100 | 1026.9 |
| 20260506180059 | 56 | 189 | 0.0 | 0.0 | 0.00 | 0.12 | 0.01 | 100 | 1026.8 |
| 20260506175547 | 56 | 189 | 0.0 | 0.0 | 0.00 | 0.12 | 0.01 | 100 | 1026.9 |
| 20260506175043 | 56 | 189 | 0.0 | 0.0 | 0.01 | 0.13 | 0.01 | 100 | 1026.9 |
| 20260506174543 | 56 | 189 | 0.0 | 0.0 | 0.01 | 0.13 | 0.01 | 100 | 1027.0 |
| 20260506174442 | 56 | 189 | 0.0 | 0.0 | 0.01 | 0.13 | 0.01 | 100 | 1026.9 |
| 20260506173548 | 56 | 189 | 0.0 | 0.0 | 0.01 | 0.14 | 0.01 | 100 | 1027.0 |
| 20260506173442 | 56 | 189 | 0.0 | 0.0 | 0.01 | 0.15 | 0.01 | 100 | 1026.9 |
| 20260506172940 | 56 | 189 | 0.0 | 0.0 | 0.01 | 0.15 | 0.01 | 100 | 1026.8 |
| 20260506172044 | 56 | 189 | 0.0 | 0.0 | 0.01 | 0.16 | 0.01 | 100 | 1027.0 |
| 20260506171543 | 56 | 189 | 0.0 | 0.0 | 0.01 | 0.16 | 0.01 | 100 | 1027.0 |
| 20260506171043 | 56 | 189 | 0.0 | 0.0 | 0.01 | 0.16 | 0.01 | 100 | 1026.9 |
| 20260506170912 | 56 | 189 | 0.0 | 0.0 | 0.01 | 0.16 | 0.01 | 100 | 1027.0 |
| 20260506170043 | 56 | 189 | 0.0 | 0.0 | 0.01 | 0.17 | 0.01 | 100 | 1027.0 |
| 20260506165542 | 56 | 189 | 0.0 | 0.0 | 0.01 | 0.17 | 0.01 | 100 | 1027.0 |
| 20260506165220 | 56 | 189 | 0.0 | 0.0 | 0.00 | 0.18 | 0.00 | 100 | 1027.0 |
| 20260506164442 | 55 | 189 | 0.0 | 0.0 | 0.00 | 0.18 | 0.00 | 100 | 1027.0 |
| 20260506163538 | 55 | 189 | 0.0 | 0.0 | 0.00 | 0.18 | 0.00 | 100 | 1026.9 |
| 20260506163042 | 55 | 189 | 0.0 | 0.0 | 0.00 | 0.18 | 0.00 | 100 | 1026.9 |
| 20260506162539 | 56 | 189 | 0.0 | 0.0 | 0.00 | 0.18 | 0.00 | 100 | 1026.9 |
| 20260506162451 | 56 | 189 | 0.0 | 0.0 | 0.00 | 0.18 | 0.00 | 100 | 1027.0 |
| 20260506161525 | 56 | 189 | 0.0 | 0.0 | 0.00 | 0.18 | 0.00 | 100 | 1027.1 |
| 20260506161035 | 56 | 189 | 0.0 | 0.0 | 0.00 | 0.18 | 0.00 | 100 | 1027.0 |
| 20260506160946 | 56 | 189 | 0.0 | 0.0 | 0.00 | 0.18 | 0.00 | 100 | 1027.2 |
| 20260506160402 | 56 | 189 | 0.0 | 0.0 | 0.00 | 0.18 | 0.00 | 100 | 1027.2 |
| 20260506155503 | 57 | 189 | 0.0 | 0.0 | 0.00 | 0.18 | 0.00 | 100 | 1027.2 |
| 20260506155003 | 57 | 189 | 0.0 | 0.0 | 0.00 | 0.18 | 0.00 | 100 | 1027.3 |
| 20260506154458 | 57 | 189 | 0.0 | 0.0 | 0.00 | 0.18 | 0.00 | 100 | 1027.2 |
| 20260506153959 | 57 | 189 | 0.0 | 0.0 | 0.00 | 0.18 | 0.00 | 100 | 1027.4 |
| 20260506153500 | 57 | 189 | 0.0 | 0.0 | 0.00 | 0.18 | 0.00 | 100 | 1027.5 |
| 20260506152956 | 57 | 189 | 0.0 | 0.0 | 0.00 | 0.18 | 0.00 | 100 | 1027.5 |
| 20260506152456 | 57 | 189 | 0.0 | 0.0 | 0.00 | 0.18 | 0.00 | 100 | 1027.6 |
| 20260506151956 | 57 | 189 | 0.0 | 0.0 | 0.00 | 0.18 | 0.00 | 100 | 1027.6 |
| 20260506151455 | 57 | 189 | 0.0 | 0.0 | 0.00 | 0.18 | 0.00 | 100 | 1027.8 |
| 20260506150952 | 57 | 189 | 0.0 | 0.0 | 0.00 | 0.18 | 0.00 | 100 | 1027.7 |
| 20260506150459 | 57 | 189 | 0.0 | 0.0 | 0.00 | 0.18 | 0.00 | 100 | 1027.7 |
| 20260506145958 | 57 | 189 | 0.0 | 0.0 | 0.00 | 0.18 | 0.00 | 100 | 1027.7 |
| 20260506145454 | 57 | 189 | 0.0 | 0.0 | 0.00 | 0.18 | 0.00 | 100 | 1027.8 |
| 20260506144950 | 57 | 189 | 0.0 | 0.0 | 0.00 | 0.18 | 0.00 | 100 | 1027.9 |
| 20260506144451 | 57 | 189 | 0.0 | 0.0 | 0.00 | 0.18 | 0.00 | 100 | 1028.0 |
| 20260506143949 | 57 | 189 | 0.0 | 0.0 | 0.00 | 0.18 | 0.00 | 100 | 1028.1 |
| 20260506143448 | 57 | 189 | 0.0 | 0.0 | 0.00 | 0.18 | 0.00 | 100 | 1028.0 |
| 20260506142945 | 57 | 189 | 0.0 | 0.0 | 0.00 | 0.18 | 0.00 | 100 | 1028.3 |
| 20260506142443 | 57 | 189 | 0.0 | 0.0 | 0.00 | 0.18 | 0.00 | 100 | 1028.2 |
| 20260506141938 | 57 | 189 | 0.0 | 0.0 | 0.00 | 0.19 | 0.00 | 100 | 1028.2 |
| 20260506141432 | 57 | 189 | 0.0 | 0.0 | 0.00 | 0.19 | 0.00 | 100 | 1028.3 |
| 20260506140925 | 57 | 189 | 0.0 | 0.0 | 0.00 | 0.19 | 0.00 | 100 | 1028.3 |
| 20260506140420 | 57 | 189 | 0.0 | 0.0 | 0.00 | 0.19 | 0.00 | 100 | 1028.4 |
| 20260506140331 | 57 | 189 | 0.0 | 0.0 | 0.00 | 0.19 | 0.00 | 100 | 1028.4 |
| 20260506135407 | 57 | 189 | 0.0 | 0.0 | 0.00 | 0.20 | 0.00 | 100 | 1028.5 |
| 20260506134904 | 57 | 189 | 0.0 | 0.0 | 0.00 | 0.20 | 0.00 | 100 | 1028.4 |
| 20260506134404 | 57 | 189 | 0.0 | 0.0 | 0.00 | 0.20 | 0.00 | 100 | 1028.3 |
| 20260506133904 | 57 | 189 | 0.0 | 0.0 | 0.00 | 0.20 | 0.00 | 100 | 1028.3 |
| 20260506133401 | 57 | 189 | 0.0 | 0.0 | 0.00 | 0.21 | 0.00 | 100 | 1028.4 |
| 20260506132900 | 57 | 189 | 0.0 | 0.0 | 0.00 | 0.21 | 0.00 | 100 | 1028.4 |
| 20260506132356 | 57 | 189 | 0.0 | 0.0 | 0.00 | 0.22 | 0.00 | 100 | 1028.4 |
| 20260506131901 | 57 | 189 | 0.0 | 0.0 | 0.00 | 0.23 | 0.00 | 100 | 1028.4 |
| 20260506131358 | 57 | 189 | 0.0 | 0.0 | 0.00 | 0.24 | 0.00 | 100 | 1028.4 |
| 20260506130855 | 56 | 189 | 0.0 | 0.0 | 0.00 | 0.24 | 0.00 | 100 | 1028.4 |
| 20260506130350 | 56 | 189 | 0.0 | 0.0 | 0.00 | 0.25 | 0.00 | 100 | 1028.4 |
| 20260506130316 | 56 | 189 | 0.0 | 0.0 | 0.00 | 0.25 | 0.00 | 100 | 1028.6 |
| 20260506125346 | 56 | 189 | 0.0 | 0.0 | 0.00 | 0.25 | 0.00 | 100 | 1028.5 |
| 20260506124843 | 56 | 189 | 0.0 | 0.0 | 0.00 | 0.25 | 0.00 | 100 | 1028.6 |
| 20260506124734 | 56 | 189 | 0.0 | 0.0 | 0.00 | 0.26 | 0.00 | 100 | 1028.6 |
| 20260506123840 | 56 | 189 | 0.0 | 0.0 | 0.00 | 0.27 | 0.00 | 100 | 1028.6 |
| 20260506123337 | 56 | 189 | 0.0 | 0.0 | 0.00 | 0.28 | 0.00 | 100 | 1028.5 |
| 20260506122834 | 56 | 189 | 0.0 | 0.0 | 0.00 | 0.28 | 0.00 | 100 | 1028.6 |
| 20260506122728 | 56 | 189 | 0.0 | 0.0 | 0.00 | 0.28 | 0.00 | 100 | 1028.7 |
| 20260506121833 | 56 | 189 | 0.0 | 0.0 | 0.00 | 0.28 | 0.00 | 100 | 1028.7 |
| 20260506121815 | 56 | 189 | 0.0 | 0.0 | 0.00 | 0.28 | 0.00 | 100 | 1028.7 |
| 20260506120827 | 56 | 189 | 0.0 | 0.0 | 0.00 | 0.28 | 0.00 | 100 | 1028.8 |
| 20260506120330 | 56 | 189 | 0.0 | 0.0 | 0.00 | 0.28 | 0.00 | 100 | 1028.8 |
| 20260506115830 | 56 | 189 | 0.0 | 0.0 | 0.00 | 0.28 | 0.28 | 100 | 1028.7 |
| 20260506115323 | 56 | 189 | 0.0 | 0.0 | 0.00 | 0.28 | 0.28 | 100 | 1028.9 |
| 20260506114817 | 56 | 189 | 0.0 | 0.0 | 0.00 | 0.28 | 0.28 | 100 | 1028.8 |
| 20260506114701 | 56 | 189 | 0.0 | 0.0 | 0.00 | 0.28 | 0.28 | 100 | 1028.8 |
| 20260506113810 | 55 | 189 | 0.0 | 0.0 | 0.00 | 0.28 | 0.28 | 100 | 1028.8 |
| 20260506113304 | 55 | 189 | 0.0 | 0.0 | 0.00 | 0.28 | 0.28 | 100 | 1028.9 |
| 20260506112804 | 55 | 189 | 0.0 | 0.0 | 0.00 | 0.28 | 0.28 | 100 | 1028.9 |
| 20260506112442 | 56 | 189 | 0.0 | 0.0 | 0.00 | 0.28 | 0.28 | 100 | 1028.9 |
| 20260506111301 | 56 | 189 | 0.0 | 0.0 | 0.00 | 0.28 | 0.28 | 100 | 1028.9 |
| 20260506110803 | 56 | 189 | 0.0 | 0.0 | 0.00 | 0.28 | 0.28 | 100 | 1028.9 |
| 20260506110302 | 55 | 189 | 0.0 | 0.0 | 0.00 | 0.28 | 0.28 | 100 | 1028.8 |
| 20260506105757 | 55 | 189 | 0.0 | 0.0 | 0.00 | 0.28 | 0.28 | 100 | 1029.0 |
| 20260506105256 | 55 | 189 | 0.0 | 0.0 | 0.00 | 0.28 | 0.28 | 100 | 1029.2 |
| 20260506104757 | 55 | 189 | 0.0 | 0.0 | 0.00 | 0.28 | 0.28 | 100 | 1029.0 |
| 20260506104302 | 55 | 189 | 0.0 | 0.0 | 0.00 | 0.28 | 0.28 | 100 | 1029.1 |
| 20260506103757 | 55 | 189 | 0.0 | 0.0 | 0.00 | 0.28 | 0.28 | 100 | 1029.2 |
| 20260506103255 | 55 | 189 | 0.0 | 0.0 | 0.00 | 0.28 | 0.28 | 100 | 1029.2 |
| 20260506102755 | 55 | 189 | 0.0 | 0.0 | 0.00 | 0.28 | 0.28 | 100 | 1029.2 |
| 20260506102650 | 55 | 189 | 0.0 | 0.0 | 0.00 | 0.28 | 0.28 | 100 | 1029.3 |
| 20260506101930 | 55 | 189 | 0.0 | 0.0 | 0.00 | 0.28 | 0.28 | 100 | 1029.3 |
| 20260506100747 | 54 | 189 | 0.0 | 0.0 | 0.00 | 0.28 | 0.28 | 99 | 1029.3 |
| 20260506100247 | 54 | 189 | 0.0 | 0.0 | 0.00 | 0.28 | 0.28 | 99 | 1029.2 |
| 20260506095744 | 55 | 189 | 0.0 | 0.0 | 0.00 | 0.28 | 0.28 | 99 | 1029.3 |
| 20260506095235 | 55 | 189 | 0.0 | 0.0 | 0.00 | 0.28 | 0.28 | 99 | 1029.2 |
| 20260506094728 | 55 | 189 | 0.0 | 0.0 | 0.00 | 0.28 | 0.28 | 99 | 1029.2 |
| 20260506094223 | 55 | 189 | 0.0 | 0.0 | 0.00 | 0.28 | 0.28 | 99 | 1029.2 |
| 20260506093716 | 55 | 189 | 0.0 | 0.0 | 0.00 | 0.28 | 0.28 | 99 | 1029.2 |
| 20260506093212 | 55 | 189 | 0.0 | 0.0 | 0.00 | 0.28 | 0.28 | 99 | 1029.2 |
| 20260506092712 | 55 | 189 | 0.0 | 0.0 | 0.00 | 0.28 | 0.28 | 99 | 1029.3 |
| 20260506092211 | 55 | 189 | 0.0 | 0.0 | 0.00 | 0.28 | 0.28 | 99 | 1029.3 |
| 20260506091717 | 55 | 189 | 0.0 | 0.0 | 0.00 | 0.28 | 0.28 | 99 | 1029.3 |
| 20260506091212 | 55 | 189 | 0.0 | 0.0 | 0.00 | 0.28 | 0.28 | 99 | 1029.2 |
| 20260506090713 | 56 | 189 | 0.0 | 0.0 | 0.00 | 0.28 | 0.28 | 99 | 1029.3 |
| 20260506090612 | 56 | 189 | 0.0 | 0.0 | 0.00 | 0.28 | 0.28 | 98 | 1029.3 |
| 20260506085713 | 56 | 189 | 0.0 | 0.0 | 0.00 | 0.28 | 0.28 | 98 | 1029.2 |
| 20260506085212 | 56 | 189 | 0.0 | 0.0 | 0.00 | 0.28 | 0.28 | 98 | 1029.3 |
| 20260506084707 | 57 | 189 | 0.0 | 0.0 | 0.00 | 0.28 | 0.28 | 99 | 1029.3 |
| 20260506084601 | 57 | 189 | 0.0 | 0.0 | 0.00 | 0.28 | 0.28 | 99 | 1029.3 |
| 20260506083708 | 57 | 189 | 0.0 | 0.0 | 0.00 | 0.28 | 0.28 | 99 | 1029.2 |
| 20260506083556 | 57 | 189 | 0.0 | 0.0 | 0.00 | 0.28 | 0.28 | 99 | 1029.3 |
| 20260506082709 | 58 | 189 | 0.0 | 0.0 | 0.00 | 0.28 | 0.28 | 99 | 1029.3 |
| 20260506082357 | 58 | 188 | 0.0 | 0.0 | 0.00 | 0.28 | 0.28 | 99 | 1029.2 |
| 20260506081202 | 58 | 189 | 0.0 | 0.0 | 0.00 | 0.28 | 0.28 | 99 | 1029.3 |
| 20260506080701 | 58 | 188 | 0.0 | 0.0 | 0.00 | 0.28 | 0.28 | 99 | 1029.2 |
| 20260506080156 | 58 | 188 | 0.0 | 0.0 | 0.00 | 0.28 | 0.28 | 99 | 1029.3 |
| 20260506073156 | 59 | 184 | 0.0 | 0.0 | 0.01 | 0.28 | 0.28 | 98 | 1029.1 |
| 20260506072658 | 59 | 180 | 0.0 | 0.0 | 0.01 | 0.28 | 0.28 | 98 | 1029.2 |
| 20260506072157 | 59 | 180 | 0.0 | 0.0 | 0.01 | 0.28 | 0.28 | 98 | 1029.2 |
| 20260506072051 | 59 | 180 | 0.0 | 0.0 | 0.01 | 0.28 | 0.28 | 98 | 1029.1 |
| 20260506071202 | 59 | 180 | 0.0 | 0.0 | 0.01 | 0.28 | 0.28 | 98 | 1029.1 |
| 20260506070701 | 59 | 179 | 0.0 | 0.0 | 0.01 | 0.28 | 0.28 | 98 | 1029.1 |
| 20260506070159 | 59 | 179 | 0.0 | 0.0 | 0.01 | 0.28 | 0.28 | 98 | 1029.1 |
| 20260506070135 | 59 | 179 | 0.0 | 0.0 | 0.00 | 0.27 | 0.27 | 98 | 1029.1 |
| 20260506062135 | 60 | 177 | 0.0 | 0.0 | 0.00 | 0.27 | 0.27 | 98 | 1028.9 |
| 20260506061629 | 60 | 177 | 0.0 | 0.0 | 0.00 | 0.27 | 0.27 | 98 | 1028.9 |
| 20260506061125 | 60 | 177 | 0.0 | 0.0 | 0.00 | 0.27 | 0.27 | 97 | 1028.8 |
| 20260506060617 | 60 | 177 | 0.0 | 0.0 | 0.00 | 0.27 | 0.27 | 97 | 1028.8 |
| 20260506060113 | 60 | 177 | 0.0 | 0.0 | 0.00 | 0.27 | 0.27 | 97 | 1028.7 |
| 20260506051402 | 62 | 176 | 0.0 | 0.0 | 0.01 | 0.27 | 0.27 | 96 | 1028.7 |
| 20260506050851 | 62 | 175 | 0.0 | 0.0 | 0.02 | 0.27 | 0.27 | 95 | 1028.8 |
| 20260506044440 | 63 | 163 | 0.0 | 0.0 | 0.03 | 0.27 | 0.27 | 94 | 1028.8 |
| 20260506044319 | 63 | 163 | 0.0 | 0.0 | 0.02 | 0.26 | 0.26 | 94 | 1028.8 |
| 20260506043428 | 63 | 163 | 0.0 | 0.0 | 0.02 | 0.26 | 0.26 | 94 | 1028.8 |
| 20260506042923 | 63 | 163 | 0.0 | 0.0 | 0.02 | 0.26 | 0.26 | 94 | 1028.9 |
| 20260506042415 | 63 | 163 | 0.0 | 2.0 | 0.02 | 0.26 | 0.26 | 94 | 1028.8 |
| 20260506041909 | 63 | 163 | 0.0 | 2.0 | 0.02 | 0.26 | 0.26 | 94 | 1028.8 |
| 20260506041409 | 63 | 172 | 1.0 | 6.0 | 0.02 | 0.26 | 0.26 | 93 | 1028.8 |
| 20260506040910 | 64 | 161 | 2.0 | 6.0 | 0.02 | 0.25 | 0.26 | 92 | 1028.8 |
| 20260506040813 | 64 | 154 | 1.0 | 6.0 | 0.01 | 0.24 | 0.24 | 90 | 1028.9 |
| 20260506035909 | 65 | 191 | 1.0 | 6.0 | 0.00 | 0.24 | 0.24 | 89 | 1028.8 |
| 20260506035410 | 65 | 135 | 2.0 | 8.0 | 0.00 | 0.24 | 0.24 | 87 | 1028.7 |
| 20260506034914 | 65 | 197 | 2.0 | 8.0 | 0.00 | 0.24 | 0.24 | 87 | 1028.7 |
| 20260506034410 | 66 | 125 | 1.0 | 4.0 | 0.00 | 0.24 | 0.24 | 87 | 1028.8 |
| 20260506033908 | 66 | 172 | 1.0 | 4.0 | 0.00 | 0.24 | 0.24 | 87 | 1028.8 |
| 20260506033407 | 67 | 156 | 1.0 | 4.0 | 0.00 | 0.24 | 0.24 | 85 | 1028.8 |
| 20260506032908 | 67 | 86 | 1.0 | 2.0 | 0.00 | 0.24 | 0.24 | 85 | 1028.6 |
| 20260506032833 | 67 | 132 | 1.0 | 5.0 | 0.00 | 0.24 | 0.24 | 84 | 1028.7 |
| 20260506031909 | 67 | 170 | 2.0 | 5.0 | 0.00 | 0.24 | 0.24 | 85 | 1028.7 |
| 20260506031410 | 68 | 174 | 1.0 | 5.0 | 0.00 | 0.24 | 0.24 | 85 | 1028.7 |
| 20260506031311 | 68 | 207 | 1.0 | 5.0 | 0.00 | 0.24 | 0.24 | 84 | 1028.7 |
| 20260506030407 | 68 | 176 | 1.0 | 6.0 | 0.00 | 0.24 | 0.24 | 85 | 1028.6 |
| 20260506030321 | 68 | 111 | 1.0 | 6.0 | 0.00 | 0.24 | 0.24 | 83 | 1028.7 |
| 20260506025409 | 69 | 217 | 1.0 | 6.0 | 0.00 | 0.24 | 0.24 | 82 | 1028.7 |
| 20260506024909 | 68 | 151 | 2.0 | 7.0 | 0.00 | 0.24 | 0.24 | 84 | 1028.8 |
| 20260506024406 | 68 | 162 | 2.0 | 7.0 | 0.00 | 0.24 | 0.24 | 84 | 1028.7 |
| 20260506023904 | 68 | 167 | 3.0 | 7.0 | 0.00 | 0.24 | 0.24 | 84 | 1028.7 |
| 20260506023404 | 68 | 224 | 2.0 | 7.0 | 0.00 | 0.24 | 0.24 | 85 | 1028.7 |
| 20260506022904 | 68 | 182 | 2.0 | 7.0 | 0.00 | 0.24 | 0.24 | 85 | 1028.7 |
| 20260506022404 | 68 | 163 | 2.0 | 7.0 | 0.00 | 0.24 | 0.24 | 85 | 1028.7 |
| 20260506022313 | 68 | 32 | 2.0 | 7.0 | 0.00 | 0.24 | 0.24 | 86 | 1028.6 |
| 20260506021405 | 68 | 153 | 2.0 | 6.0 | 0.00 | 0.24 | 0.24 | 85 | 1028.6 |
| 20260506021304 | 68 | 185 | 2.0 | 8.0 | 0.00 | 0.24 | 0.24 | 86 | 1028.6 |
| 20260506020802 | 67 | 172 | 2.0 | 8.0 | 0.00 | 0.24 | 0.24 | 85 | 1028.7 |
| 20260506020255 | 67 | 170 | 2.0 | 9.0 | 0.00 | 0.24 | 0.24 | 88 | 1028.7 |
| 20260506015405 | 67 | 103 | 3.0 | 9.0 | 0.00 | 0.24 | 0.24 | 88 | 1028.7 |
| 20260506014903 | 66 | 178 | 3.0 | 10.0 | 0.00 | 0.24 | 0.24 | 87 | 1028.6 |
| 20260506014408 | 66 | 161 | 3.0 | 10.0 | 0.00 | 0.24 | 0.24 | 88 | 1028.7 |
| 20260506014313 | 66 | 135 | 3.0 | 7.0 | 0.00 | 0.24 | 0.24 | 88 | 1028.8 |
| 20260506013403 | 66 | 74 | 3.0 | 9.0 | 0.00 | 0.24 | 0.24 | 89 | 1028.9 |
| 20260506013057 | 66 | 171 | 3.0 | 9.0 | 0.00 | 0.24 | 0.24 | 87 | 1028.8 |
| 20260506012317 | 66 | 178 | 3.0 | 8.0 | 0.00 | 0.24 | 0.24 | 89 | 1029.1 |
| 20260506011403 | 65 | 185 | 3.0 | 9.0 | 0.00 | 0.24 | 0.24 | 91 | 1029.1 |
| 20260506010913 | 65 | 125 | 2.0 | 9.0 | 0.00 | 0.24 | 0.24 | 91 | 1029.1 |
| 20260506010359 | 65 | 191 | 3.0 | 7.0 | 0.00 | 0.24 | 0.24 | 91 | 1029.1 |
| 20260506005857 | 65 | 140 | 2.0 | 6.0 | 0.00 | 0.24 | 0.24 | 90 | 1029.1 |
| 20260506005358 | 65 | 173 | 2.0 | 6.0 | 0.00 | 0.24 | 0.24 | 91 | 1029.2 |
| 20260506004859 | 65 | 138 | 2.0 | 6.0 | 0.00 | 0.24 | 0.24 | 93 | 1029.2 |
| 20260506004744 | 65 | 163 | 2.0 | 6.0 | 0.00 | 0.24 | 0.24 | 92 | 1029.4 |
| 20260506003857 | 64 | 141 | 1.0 | 6.0 | 0.00 | 0.24 | 0.24 | 93 | 1029.4 |
| 20260506003357 | 64 | 186 | 1.0 | 6.0 | 0.00 | 0.24 | 0.24 | 94 | 1029.5 |
| 20260506002855 | 64 | 175 | 1.0 | 4.0 | 0.00 | 0.24 | 0.24 | 94 | 1029.5 |
| 20260506002353 | 64 | 156 | 1.0 | 4.0 | 0.01 | 0.24 | 0.24 | 95 | 1029.6 |
| 20260506002259 | 63 | 167 | 1.0 | 4.0 | 0.01 | 0.24 | 0.24 | 95 | 1029.7 |
| 20260506001352 | 63 | 190 | 1.0 | 5.0 | 0.01 | 0.24 | 0.24 | 96 | 1029.7 |
| 20260506000850 | 63 | 181 | 1.0 | 5.0 | 0.02 | 0.24 | 0.24 | 96 | 1029.9 |
| 20260506000809 | 63 | 199 | 1.0 | 4.0 | 0.03 | 0.24 | 0.24 | 96 | 1030.1 |
| 20260506000254 | 63 | 184 | 1.0 | 3.0 | 0.05 | 0.24 | 0.24 | 96 | 1030.1 |
| 20260505235338 | 63 | 143 | 1.0 | 3.0 | 0.06 | 0.24 | 0.24 | 95 | 1030.0 |
| 20260505234833 | 63 | 229 | 0.0 | 1.0 | 0.06 | 0.24 | 0.24 | 96 | 1030.2 |
| 20260505234512 | 63 | 242 | 0.0 | 1.0 | 0.06 | 0.24 | 0.24 | 96 | 1030.2 |
| 20260505233312 | 62 | 279 | 0.0 | 0.0 | 0.06 | 0.24 | 0.24 | 96 | 1030.3 |